Latest Weather Observations for Gabo Island

IDV60801

Issued at 4:35 pm EDT Thursday 23 October 2014 (issued every 30 minutes, with the page automatically refreshed every 10 minutes)

About weather observations | Map of weather stations | Latest weather observations for VIC | Other Formats
Station Details ID: 084016 Name: GABO ISLAND LIGHTHOUSE Lat: -37.57 Lon: 149.92 Height: 15.2 m
Data from the previous 72 hours. | See also: Recent months at Gabo Island
Date/Time
EDT
Temp
°C
App
Temp
°C
Dew
Point
Rel
Hum
%
Delta-T
°C
Wind Press
QNH
hPa
Press
MSL
hPa
Rain
since 9 am
mm
Dir
 
Spd
km/h
Gust
km/h
Spd
kts
Gust
kts
23/04:30pm 17.8 16.5 15.8 88 1.2 WSW 17 20 9 11 1019.1 - 0.0
23/04:00pm 18.3 17.5 16.1 87 1.3 SW 15 17 8 9 1018.7 - 0.0
23/03:30pm 17.9 16.0 15.7 87 1.3 SSW 20 24 11 13 1018.5 - 0.0
23/03:00pm 19.1 17.0 16.3 84 1.7 SSW 22 28 12 15 1018.6 1018.6 0.0
23/02:30pm 17.8 15.0 15.4 86 1.4 SSW 24 28 13 15 1018.6 - 0.0
23/02:00pm 17.7 13.8 15.5 87 1.3 SSW 30 33 16 18 1018.7 - 0.0
23/01:30pm 17.5 13.0 15.3 87 1.3 SSW 33 37 18 20 1018.7 - 0.0
23/01:00pm 17.8 13.9 15.6 87 1.3 SSW 30 35 16 19 1018.5 - 0.0
23/12:30pm 18.1 13.7 15.2 83 1.7 SW 32 37 17 20 1018.7 - 0.0
23/12:00pm 18.3 14.2 14.9 80 2.0 SW 30 33 16 18 1018.9 1018.9 0.0
23/11:30am 19.2 16.7 15.1 77 2.4 WSW 22 26 12 14 1019.0 - 0.0
23/11:00am 19.1 16.5 15.0 77 2.4 SW 22 26 12 14 1019.0 - 0.0
23/10:30am 19.4 16.4 14.8 75 2.7 SW 24 28 13 15 1019.0 - 0.0
23/10:00am 19.0 16.3 14.5 75 2.6 WSW 22 28 12 15 1018.8 - 0.0
23/09:30am 19.8 19.8 13.7 68 3.5 SSW 6 9 3 5 1017.9 - 0.0
23/09:00am 19.4 19.1 14.4 73 2.9 NNE 9 13 5 7 1017.7 1017.7 0.0
23/08:30am 20.3 19.9 13.1 63 4.1 SE 7 11 4 6 1016.8 - 0.0
23/08:00am 20.6 19.3 12.6 60 4.5 W 11 15 6 8 1017.3 - 0.0
23/07:30am 19.1 16.7 12.5 65 3.7 WNW 17 24 9 13 1017.2 - 0.0
23/07:00am 17.6 15.5 12.4 71 2.9 WNW 15 20 8 11 1017.2 - 0.0
23/06:30am 15.6 13.8 13.3 86 1.3 WNW 15 20 8 11 1017.2 - 0.0
23/06:00am 15.6 13.0 13.3 86 1.3 WNW 19 20 10 11 1016.5 1016.6 0.0
23/05:30am 16.0 14.2 13.3 84 1.5 WNW 15 19 8 10 1016.1 - 0.0
23/05:00am 15.5 12.5 13.7 89 1.0 SW 22 26 12 14 1016.4 - 0.0
23/04:30am 15.7 14.5 14.0 90 1.0 NNE 13 17 7 9 1015.2 - 0.0
23/04:00am 15.4 15.3 13.4 88 1.1 WNW 6 9 3 5 1015.5 - 0.0
23/03:30am 15.6 15.7 13.8 89 1.0 S 6 7 3 4 1015.6 - 0.0
23/03:00am 15.7 12.6 13.4 86 1.3 NNE 22 24 12 13 1015.5 1015.5 0.0
23/02:30am 15.6 12.0 13.1 85 1.4 N 24 30 13 16 1015.6 - 0.0
23/02:00am 15.4 12.9 13.4 88 1.1 NNE 19 20 10 11 1016.0 - 0.0
23/01:30am 15.5 13.3 13.2 86 1.3 NNE 17 20 9 11 1016.6 - 0.0
23/01:00am 15.0 13.3 12.6 85 1.3 N 13 17 7 9 1017.1 - 0.0
23/12:30am 15.1 13.5 12.7 85 1.3 N 13 15 7 8 1017.2 - 0.0
23/12:00am 15.7 13.5 13.2 85 1.4 NNE 17 20 9 11 1017.2 1017.2 0.0
 
Date/Time
EDT
Temp
°C
App
Temp
°C
Dew
Point
Rel
Hum
%
Delta-T
°C
Wind Press
QNH
hPa
Press
MSL
hPa
Rain
since 9 am
mm
Dir
 
Spd
km/h
Gust
km/h
Spd
kts
Gust
kts
22/11:30pm 15.8 13.2 13.1 84 1.5 N 19 22 10 12 1017.3 - 0.0
22/11:00pm 16.0 12.7 12.9 82 1.7 N 22 26 12 14 1017.4 - 0.0
22/10:30pm 16.3 12.7 12.9 80 1.9 N 24 30 13 16 1017.6 - 0.0
22/10:00pm 16.3 12.7 12.9 80 1.9 NNE 24 28 13 15 1017.8 - 0.0
22/09:30pm 16.5 13.2 12.7 78 2.1 NNE 22 26 12 14 1018.0 - 0.0
22/09:00pm 16.7 13.3 12.5 76 2.3 NNE 22 28 12 15 1018.3 1018.3 0.0
22/08:30pm 16.7 12.9 12.3 75 2.4 NNE 24 28 13 15 1018.0 - 0.0
22/08:00pm 16.9 12.3 12.4 75 2.5 NNE 28 32 15 17 1017.7 - 0.0
22/07:30pm 17.1 12.2 12.6 75 2.5 NNE 30 35 16 19 1017.6 - 0.0
22/07:00pm 17.4 11.6 12.7 74 2.6 NNE 35 39 19 21 1017.5 - 0.0
22/06:30pm 17.7 11.5 12.7 72 2.8 NNE 37 43 20 23 1017.3 - 0.0
22/06:00pm 18.1 11.9 12.5 70 3.1 NNE 37 43 20 23 1017.4 1017.4 0.0
22/05:30pm 18.3 12.1 12.6 69 3.2 NNE 37 43 20 23 1017.5 - 0.0
22/05:00pm 18.5 11.4 12.2 66 3.5 NNE 41 48 22 26 1017.6 - 0.0
22/04:30pm 18.6 11.5 12.1 66 3.6 NNE 41 48 22 26 1017.7 - 0.0
22/04:00pm 18.9 11.7 12.0 64 3.8 NNE 41 48 22 26 1017.9 - 0.0
22/03:30pm 19.0 11.4 11.7 62 4.0 NNE 43 50 23 27 1018.2 - 0.0
22/03:00pm 19.0 10.9 10.9 59 4.4 NNE 44 54 24 29 1018.4 1018.5 0.0
22/02:30pm 19.0 11.1 11.3 61 4.2 NNE 44 54 24 29 1018.8 - 0.0
22/02:00pm 19.0 10.2 10.9 59 4.4 NNE 48 57 26 31 1019.1 - 0.0
22/01:30pm 18.9 10.0 10.5 58 4.5 NNE 48 59 26 32 1019.2 - 0.0
22/01:00pm 18.7 9.7 10.3 58 4.5 NNE 48 57 26 31 1019.6 - 0.0
22/12:30pm 18.5 9.4 10.0 57 4.5 NNE 48 59 26 32 1020.0 - 0.0
22/12:00pm 18.5 9.2 9.3 55 4.8 NNE 48 57 26 31 1020.5 1020.5 0.0
22/11:30am 18.6 9.4 9.5 55 4.8 NNE 48 59 26 32 1021.1 - 0.0
22/11:00am 18.1 8.8 9.3 56 4.6 NNE 48 59 26 32 1021.4 - 0.0
22/10:30am 17.7 8.4 9.0 56 4.5 NNE 48 61 26 33 1021.9 - 0.0
22/10:00am 17.7 8.1 8.1 53 4.9 NNE 48 59 26 32 1022.2 - 0.0
22/09:31am 17.6 8.8 8.2 54 4.8 N 44 63 24 34 1022.5 - 0.0
22/09:30am 17.8 8.6 7.9 52 5.0 N 46 63 25 34 1022.5 - 0.0
22/09:00am 17.2 7.0 7.1 51 5.0 NNE 50 69 27 37 1022.4 1022.6 0.0
22/08:39am 16.8 7.0 6.9 52 4.9 NNE 48 67 26 36 1022.6 - 0.0
22/08:30am 16.6 6.0 6.8 52 4.8 NNE 52 63 28 34 1022.5 - 0.0
22/08:00am 16.1 5.9 6.9 54 4.5 NNE 50 65 27 35 1022.7 - 0.0
22/07:44am 15.8 6.5 7.5 58 4.1 NNE 46 65 25 35 1022.8 - 0.0
22/07:30am 15.5 5.9 8.1 61 3.7 NNE 48 65 26 35 1022.9 - 0.0
22/07:05am 15.1 5.4 7.4 60 3.8 NNE 48 67 26 36 1022.7 - 0.0
22/07:00am 15.2 5.8 7.3 59 3.9 NNE 46 57 25 31 1022.9 - 0.0
22/06:30am 14.6 5.7 7.5 62 3.5 NNE 44 57 24 31 1023.0 - 0.0
22/06:00am 14.8 5.7 6.8 58 3.9 NNE 44 59 24 32 1023.0 1023.0 0.0
22/05:30am 14.7 5.6 6.9 59 3.8 NNE 44 54 24 29 1023.1 - 0.0
22/05:02am 14.5 5.7 7.1 61 3.6 NNE 43 61 23 33 1023.1 - 0.0
22/05:00am 14.6 5.6 7.2 61 3.6 NNE 44 61 24 33 1023.1 - 0.0
22/04:55am 14.7 5.9 7.1 60 3.7 NNE 43 61 23 33 1023.0 - 0.0
22/04:30am 14.6 5.9 7.5 62 3.5 NNE 43 56 23 30 1023.4 - 0.0
22/04:00am 14.9 6.2 7.8 62 3.5 NNE 43 56 23 30 1023.8 - 0.0
22/03:30am 14.9 5.3 7.8 62 3.5 NNE 48 59 26 32 1023.8 - 0.0
22/03:00am 14.5 4.7 6.9 60 3.7 NNE 48 61 26 33 1024.2 1024.2 0.0
22/02:30am 14.7 4.8 8.1 64 3.3 NNE 50 63 27 34 1024.5 - 0.0
22/02:00am 15.1 5.8 7.6 61 3.7 NNE 46 61 25 33 1025.2 - 0.0
22/01:30am 15.1 6.3 8.1 63 3.5 NNE 44 56 24 30 1025.8 - 0.0
22/01:00am 15.2 6.2 8.9 66 3.2 NNE 46 59 25 32 1026.1 - 0.0
22/12:30am 15.3 6.6 8.6 64 3.4 NNE 44 54 24 29 1026.8 - 0.0
22/12:00am 15.5 7.9 9.0 65 3.3 NNE 39 46 21 25 1027.4 1027.4 0.0
 
Date/Time
EDT
Temp
°C
App
Temp
°C
Dew
Point
Rel
Hum
%
Delta-T
°C
Wind Press
QNH
hPa
Press
MSL
hPa
Rain
since 9 am
mm
Dir
 
Spd
km/h
Gust
km/h
Spd
kts
Gust
kts
21/11:30pm 15.4 8.5 10.2 71 2.7 NNE 37 50 20 27 1027.8 - 0.0
21/11:00pm 15.5 6.0 11.0 74 2.4 NE 52 67 28 36 1027.7 - 0.0
21/10:30pm 15.6 6.5 11.1 74 2.4 NE 50 65 27 35 1027.9 - 0.0
21/10:00pm 15.4 5.4 10.6 73 2.5 NE 54 67 29 36 1028.1 - 0.0
21/09:30pm 15.4 5.8 10.9 74 2.4 NE 52 63 28 34 1028.4 - 0.0
21/09:00pm 15.3 4.8 10.3 72 2.6 NE 56 65 30 35 1028.4 1028.4 0.0
21/08:30pm 15.4 4.8 10.0 70 2.8 NE 56 65 30 35 1028.5 - 0.0
21/08:00pm 15.2 5.4 10.0 71 2.7 NE 52 63 28 34 1028.4 - 0.0
21/07:30pm 15.2 5.8 10.0 71 2.7 NE 50 61 27 33 1028.4 - 0.0
21/07:00pm 15.3 6.2 9.7 69 2.9 NE 48 57 26 31 1028.6 - 0.0
21/06:30pm 15.3 6.5 9.4 68 3.0 NE 46 57 25 31 1028.6 - 0.0
21/06:00pm 15.4 7.0 9.6 68 3.0 NE 44 54 24 29 1028.7 1028.7 0.0
21/05:30pm 15.5 6.9 8.8 64 3.4 NE 44 54 24 29 1029.0 - 0.0
21/05:00pm 15.8 7.3 9.1 64 3.4 NNE 44 54 24 29 1029.2 - 0.0
21/04:30pm 16.1 7.3 8.1 59 4.0 NE 44 56 24 30 1029.0 - 0.0
21/04:00pm 16.2 7.5 8.3 59 4.0 NE 44 54 24 29 1029.1 - 0.0
21/03:30pm 16.4 7.3 8.5 59 4.0 NE 46 57 25 31 1029.4 - 0.0
21/03:00pm 16.4 7.6 8.0 57 4.2 NE 44 52 24 28 1029.7 1029.8 0.0
21/02:30pm 16.4 7.5 7.5 55 4.4 NE 44 54 24 29 1030.2 - 0.0
21/02:00pm 16.2 6.8 7.0 54 4.5 NE 46 54 25 29 1030.6 - 0.0
21/01:30pm 16.5 7.6 7.7 56 4.4 NE 44 54 24 29 1030.9 - 0.0
21/01:00pm 16.5 7.2 7.4 55 4.5 NE 46 54 25 29 1031.3 - 0.0
21/12:30pm 16.5 7.7 7.4 55 4.5 NE 43 50 23 27 1031.8 - 0.0
21/12:00pm 16.8 7.8 7.1 52 4.8 NE 44 54 24 29 1032.0 1032.1 0.0
21/11:30am 16.6 7.9 7.5 55 4.6 NE 43 50 23 27 1032.3 - 0.0
21/11:00am 16.4 7.8 6.5 52 4.8 NE 41 48 22 26 1032.5 - 0.0
21/10:30am 15.8 7.2 6.7 54 4.5 NE 41 46 22 25 1032.7 - 0.0
21/10:00am 16.0 7.9 6.8 54 4.5 NE 39 44 21 24 1033.0 - 0.0
21/09:30am 15.7 8.0 7.1 56 4.2 NE 37 43 20 23 1032.9 - 0.0
21/09:00am 15.7 8.6 5.6 51 4.8 NE 32 41 17 22 1032.8 1033.0 0.0
21/08:30am 15.0 7.6 5.2 52 4.6 NE 33 43 18 23 1032.7 - 0.0
21/08:00am 14.5 7.0 4.5 51 4.6 NNE 33 43 18 23 1032.6 - 0.0
21/07:30am 14.7 6.9 4.7 51 4.7 NE 35 44 19 24 1032.4 - 0.0
21/07:00am 14.4 8.1 5.7 56 4.1 NNE 28 35 15 19 1032.1 - 0.0
21/06:30am 14.4 8.3 4.9 53 4.4 NNE 26 32 14 17 1031.9 - 0.0
21/06:00am 14.5 7.8 5.8 56 4.1 NE 30 39 16 21 1031.7 1031.7 0.0
21/05:30am 14.3 8.0 7.3 63 3.4 NE 30 35 16 19 1031.7 - 0.0
21/05:00am 14.2 8.1 4.9 53 4.3 NNE 26 33 14 18 1031.6 - 0.0
21/04:30am 14.2 7.2 4.3 51 4.6 NNE 30 37 16 20 1031.7 - 0.0
21/04:00am 14.1 7.1 3.9 50 4.6 NE 30 35 16 19 1031.7 - 0.0
21/03:30am 14.1 7.3 3.3 48 4.9 NE 28 35 15 19 1031.9 - 0.0
21/03:00am 13.9 7.4 4.8 54 4.2 NE 28 32 15 17 1032.2 1032.3 0.0
21/02:30am 13.9 7.5 5.0 55 4.1 ENE 28 32 15 17 1032.4 - 0.0
21/02:00am 14.2 7.0 3.2 47 4.9 ENE 30 35 16 19 1032.7 - 0.0
21/01:30am 13.7 8.1 5.3 57 3.9 NE 24 30 13 16 1032.9 - 0.0
21/01:00am 14.4 8.3 4.9 53 4.4 ENE 26 33 14 18 1033.0 - 0.0
21/12:30am 14.1 8.3 4.5 52 4.4 ENE 24 28 13 15 1033.3 - 0.0
21/12:00am 14.0 8.4 5.2 55 4.1 ENE 24 26 13 14 1033.4 1033.5 0.0
 
Date/Time
EDT
Temp
°C
App
Temp
°C
Dew
Point
Rel
Hum
%
Delta-T
°C
Wind Press
QNH
hPa
Press
MSL
hPa
Rain
since 9 am
mm
Dir
 
Spd
km/h
Gust
km/h
Spd
kts
Gust
kts
20/11:30pm 14.2 7.7 4.9 53 4.3 ENE 28 32 15 17 1033.4 - 0.0
20/11:00pm 14.2 8.2 5.2 54 4.2 E 26 32 14 17 1033.4 - 0.0
20/10:30pm 14.3 8.1 6.1 58 3.9 ENE 28 32 15 17 1033.5 - 0.0
20/10:00pm 14.2 8.7 5.9 57 4.0 E 24 30 13 16 1033.6 - 0.0
20/09:30pm 14.2 8.9 6.9 61 3.5 E 24 30 13 16 1033.5 - 0.0
20/09:00pm 14.1 9.0 5.8 57 3.9 E 22 26 12 14 1033.5 1033.6 0.0
20/08:30pm 14.1 9.0 6.1 58 3.8 E 22 28 12 15 1033.3 - 0.0
20/08:00pm 14.2 8.4 6.4 59 3.8 E 26 30 14 16 1032.9 - 0.0
20/07:30pm 14.2 8.6 5.4 55 4.1 E 24 30 13 16 1032.7 - 0.0
20/07:00pm 14.3 9.4 5.0 53 4.3 E 20 28 11 15 1032.6 - 0.0
20/06:30pm 14.5 9.8 5.0 53 4.4 E 19 24 10 13 1032.5 - 0.0
20/06:00pm 14.7 10.3 5.0 52 4.5 ESE 17 22 9 12 1032.4 1032.5 0.0
20/05:30pm 14.9 10.1 4.7 50 4.8 ESE 19 24 10 13 1032.3 - 0.0
20/05:00pm 15.2 10.3 4.0 47 5.2 ESE 19 24 10 13 1032.1 - 0.0

Other Formats:

Comma delimited format used in spreadsheet applications
http://www.bom.gov.au/fwo/IDV60801/IDV60801.94933.axf

JavaScript Object Notation format (JSON) in row-major order
http://www.bom.gov.au/fwo/IDV60801/IDV60801.94933.json